[[{"header":{"parameterUnit":"m.s-1","parameterCategory":1,"la1":30.2991,"la2":30.254,"lo1":-89.0895,"lo2":-89.0444,"dy":0.0017,"dx":0.0017,"nx":28,"ny":28,"refTime":"2024-06-01T03:00:00:Z","depth":0,"parameterNumber":2,"parameterNumberName":"U-component_of_WINDS"},"data":[0,0,0,0,0,0,0,0,0,0,0,0,0,0,0,0,0,0,0,0,0,0,0,0,0,0,0,0,0,0,0,0,0,0,0,0,0,0,0,0,0,0,0,0,0,0,0,0,0,0,0,0,0,0,0,0,0,0,-0.4383,-0.4383,0,-0.4332,-0.4331,-0.4331,-0.4283,-0.4282,-0.4281,-0.4281,-0.4228,-0.4227,-0.4227,0,0,0,0,0,0,0,0,0,0,0,0,0,-0.4442,-0.4441,-0.4383,-0.4383,-0.4382,-0.4332,-0.4331,-0.4331,-0.4283,-0.4282,-0.4281,-0.4281,-0.4229,-0.4228,-0.4227,0,0,0,0,0,0,0,0,0,0,0,0,0,-0.4406,-0.4441,-0.4383,-0.4352,-0.4349,-0.4332,-0.4331,-0.433,-0.4283,-0.4282,-0.4281,-0.428,-0.4229,-0.4228,-0.4226,-0.4236,0,0,-0.4223,-0.4222,0,0,0,0,0,0,0,0,-0.4408,-0.4404,-0.4357,-0.4354,-0.4351,-0.4313,-0.4332,-0.4299,-0.4283,-0.4308,-0.4281,-0.428,-0.4257,-0.4253,-0.4246,-0.4234,-0.4232,-0.4222,-0.4222,-0.4221,-0.4221,0,0,0,0,0,0,0,-0.4411,-0.4406,-0.4363,-0.4357,-0.4353,-0.4341,-0.4335,-0.4326,-0.4288,-0.4306,-0.4302,-0.4297,-0.4255,-0.4247,-0.4244,-0.4231,-0.4222,-0.4221,-0.4221,-0.422,-0.4227,-0.4228,0,0,0,0,0,0,-0.4418,-0.4408,-0.4365,-0.4361,-0.4378,-0.4341,-0.4334,-0.4326,-0.4288,-0.4282,-0.4298,-0.4295,-0.425,-0.4246,-0.4242,-0.4253,-0.4221,-0.422,-0.4219,-0.4226,-0.4227,-0.4228,0,0,0,0,0,0,-0.4419,-0.4414,-0.4367,-0.4384,-0.4377,-0.4341,-0.4332,-0.4325,-0.4317,-0.4282,-0.4275,-0.4296,-0.4249,-0.4244,-0.4239,-0.425,-0.4219,-0.4218,-0.4225,-0.4226,-0.4228,-0.4273,0,0,0,0,0,0,-0.4421,-0.4415,-0.4418,-0.4384,-0.4376,-0.4364,-0.4333,-0.4325,-0.4315,-0.4311,-0.4279,-0.4273,-0.4248,-0.4241,-0.4237,-0.4248,-0.4217,-0.4224,-0.4225,-0.4227,-0.4271,-0.4276,-0.4281,0,0,0,0,0,-0.4423,-0.4433,-0.4418,-0.4413,-0.4379,-0.4364,-0.436,-0.4331,-0.4316,-0.4319,-0.4297,-0.4274,-0.425,-0.4241,-0.4236,-0.4247,-0.4223,-0.4225,-0.4227,-0.4268,-0.4275,-0.4281,0,0,0,0,0,0,-0.4468,-0.4428,-0.4411,-0.441,-0.4391,-0.4356,-0.4359,-0.4339,-0.4324,-0.432,-0.4285,-0.4278,-0.4277,-0.4261,-0.4252,-0.4255,-0.4233,-0.4234,-0.4266,-0.4272,-0.4277,-0.4281,-0.4216,0,0,0,0,0,-0.4478,-0.447,-0.4434,-0.4437,-0.4428,-0.4396,-0.4388,-0.4368,-0.4347,-0.4338,-0.4315,-0.4296,-0.4284,-0.4277,-0.4264,-0.4268,-0.4261,-0.4273,-0.4278,-0.4283,-0.4285,-0.4287,-0.4293,-0.4235,-0.4235,-0.4235,0,0,-0.4498,-0.4475,-0.4471,-0.4445,-0.4428,-0.4421,-0.4389,-0.4382,-0.4376,-0.4337,-0.4331,-0.4314,-0.429,-0.429,-0.4289,-0.4277,-0.4299,-0.4285,-0.4289,-0.4289,-0.429,-0.4296,-0.4301,-0.4236,-0.4236,-0.4236,0,0,-0.4531,-0.4512,-0.4513,-0.4497,-0.4472,-0.445,-0.4451,-0.4419,-0.4407,-0.44,-0.4371,-0.4364,-0.4344,-0.4329,-0.4318,-0.4348,-0.4327,-0.4345,-0.4372,-0.4375,-0.4379,-0.4383,-0.4395,-0.44,-0.4346,-0.4347,-0.4347,0,-0.456,-0.4547,-0.4516,-0.4511,-0.4501,-0.4466,-0.4467,-0.4453,-0.4425,-0.4419,-0.4406,-0.4381,-0.4362,-0.4359,-0.4367,-0.4359,-0.4359,-0.4348,-0.4381,-0.4385,-0.4388,-0.4399,-0.4403,-0.4349,-0.4349,-0.4348,-0.4348,0,-0.4584,-0.4575,-0.4579,-0.4553,-0.4544,-0.4542,-0.4511,-0.4505,-0.4486,-0.4466,-0.4461,-0.4438,-0.4421,-0.4418,-0.4399,-0.4413,-0.4406,-0.4388,-0.4364,-0.4396,-0.4406,-0.441,-0.4353,-0.4352,-0.4351,-0.435,0,0,-0.4643,-0.4602,-0.4604,-0.4592,-0.4563,-0.4556,-0.4553,-0.4536,-0.4533,-0.4515,-0.4512,-0.4497,-0.448,-0.4469,-0.4448,-0.445,-0.4477,-0.4431,-0.443,-0.4442,-0.4493,-0.4508,-0.4513,-0.4463,-0.4463,-0.4464,-0.4495,0,-0.4672,-0.4665,-0.4638,-0.4639,-0.4632,-0.4599,-0.4597,-0.4579,-0.4561,-0.4553,-0.4532,-0.4523,-0.45,-0.4494,-0.4495,-0.4474,-0.4487,-0.4471,-0.4461,-0.4461,-0.4469,-0.4518,-0.4534,-0.4565,-0.4499,-0.45,-0.45,0,-0.4705,-0.469,-0.4691,-0.4663,-0.4659,-0.4657,-0.4641,-0.4633,-0.4613,-0.46,-0.4588,-0.4565,-0.4561,-0.4539,-0.4534,-0.4524,-0.4518,-0.4508,-0.4508,-0.4507,-0.4483,-0.4519,-0.4573,-0.4579,-0.4505,-0.4505,-0.4505,0,-0.475,-0.473,-0.4728,-0.472,-0.4687,-0.4687,-0.4673,-0.4652,-0.4644,-0.463,-0.4625,-0.461,-0.4602,-0.4592,-0.4566,-0.4552,-0.4565,-0.454,-0.4555,-0.4556,-0.4559,-0.4559,-0.4615,-0.4554,-0.4554,-0.4554,-0.4554,0,-0.4786,-0.4788,-0.4749,-0.4748,-0.475,-0.4719,-0.4722,-0.4705,-0.4687,-0.4683,-0.4653,-0.465,-0.4615,-0.4608,-0.4588,-0.4588,-0.4584,-0.4574,-0.4569,-0.4578,-0.4579,-0.4574,-0.4572,-0.4555,-0.4555,-0.4555,-0.4554,0,-0.4837,-0.481,-0.4807,-0.4776,-0.4769,-0.4772,-0.4746,-0.4745,-0.4725,-0.4721,-0.4718,-0.4687,-0.4678,-0.4651,-0.4635,-0.4621,-0.4628,-0.4617,-0.4635,-0.4631,-0.4648,-0.4647,-0.4702,-0.4709,-0.4643,-0.4644,-0.4645,0,-0.4862,-0.4863,-0.4833,-0.4829,-0.4816,-0.4809,-0.4801,-0.4771,-0.4765,-0.4743,-0.4744,-0.4732,-0.4722,-0.4709,-0.4685,-0.4673,-0.4663,-0.4683,-0.4661,-0.467,-0.4665,-0.4666,-0.4666,-0.4688,-0.4689,-0.469,-0.469,0,-0.491,-0.4897,-0.4887,-0.4873,-0.4865,-0.4852,-0.4838,-0.4836,-0.4803,-0.4797,-0.4787,-0.4779,-0.4763,-0.4753,-0.4737,-0.4724,-0.4702,-0.4697,-0.47,-0.471,-0.4721,-0.4716,-0.4649,-0.4696,-0.4696,-0.4695,-0.4695,-0.4695,-0.495,-0.495,-0.4929,-0.492,-0.4906,-0.4894,-0.4891,-0.4872,-0.4864,-0.4848,-0.4831,-0.4824,-0.4805,-0.4782,-0.4771,-0.4765,-0.4753,-0.4757,-0.4758,-0.476,-0.4765,-0.4721,-0.4762,-0.4762,-0.4761,-0.4761,-0.4761,0,-0.4997,-0.4983,-0.4974,-0.4956,-0.4949,-0.4929,-0.4913,-0.4908,-0.4902,-0.4886,-0.4877,-0.4867,-0.4857,-0.4834,-0.4822,-0.4822,-0.4812,-0.482,-0.482,-0.4818,-0.4775,-0.4775,-0.4828,-0.4828,-0.4828,-0.4828,-0.4828,-0.4828,-0.5022,-0.5021,-0.5006,-0.4999,-0.4985,-0.4978,-0.497,-0.496,-0.4947,-0.4937,-0.4929,-0.4914,-0.4895,-0.4882,-0.4873,-0.4866,-0.4864,-0.4876,-0.4866,-0.4827,-0.482,-0.4814,-0.4814,-0.4875,-0.4875,-0.4909,-0.4909,-0.491]},{"header":{"parameterUnit":"m.s-1","parameterCategory":1,"la1":30.2991,"la2":30.254,"lo1":-89.0895,"lo2":-89.0444,"dy":0.0017,"dx":0.0017,"nx":28,"ny":28,"refTime":"2024-06-01T03:00:00:Z","depth":0,"parameterNumber":3,"parameterNumberName":"V-component_of_WINDS"},"data":[0,0,0,0,0,0,0,0,0,0,0,0,0,0,0,0,0,0,0,0,0,0,0,0,0,0,0,0,0,0,0,0,0,0,0,0,0,0,0,0,0,0,0,0,0,0,0,0,0,0,0,0,0,0,0,0,0,0,2.0491,2.049,0,2.045,2.045,2.0449,2.0435,2.0435,2.0436,2.0436,2.0391,2.039,2.0389,0,0,0,0,0,0,0,0,0,0,0,0,0,2.0552,2.0551,2.0491,2.049,2.049,2.045,2.045,2.0449,2.0435,2.0435,2.0436,2.0436,2.0392,2.039,2.0389,0,0,0,0,0,0,0,0,0,0,0,0,0,2.052,2.0551,2.0491,2.0478,2.0477,2.045,2.045,2.0449,2.0435,2.0435,2.0436,2.0436,2.0392,2.0391,2.0389,2.0371,0,0,2.0382,2.0382,0,0,0,0,0,0,0,0,2.0522,2.0518,2.048,2.0479,2.0477,2.0448,2.0455,2.0423,2.0435,2.0451,2.0436,2.0436,2.041,2.0407,2.0398,2.0369,2.0367,2.0382,2.0381,2.038,2.038,0,0,0,0,0,0,0,2.0524,2.0519,2.0475,2.048,2.0478,2.0473,2.0469,2.0449,2.0429,2.0449,2.0448,2.0444,2.0409,2.04,2.0397,2.0367,2.0382,2.0381,2.0379,2.0379,2.032,2.032,0,0,0,0,0,0,2.0529,2.0521,2.0476,2.0473,2.0501,2.0472,2.0467,2.0457,2.043,2.0426,2.0444,2.0443,2.0404,2.04,2.0396,2.0373,2.038,2.0378,2.0377,2.032,2.032,2.0319,0,0,0,0,0,0,2.053,2.0525,2.0478,2.0497,2.0491,2.0471,2.046,2.0456,2.0447,2.0425,2.0421,2.0439,2.0404,2.0398,2.0377,2.0371,2.0377,2.0376,2.0321,2.032,2.032,2.0328,0,0,0,0,0,0,2.0532,2.0526,2.052,2.0497,2.049,2.0461,2.0459,2.0455,2.0444,2.0444,2.0419,2.0416,2.0403,2.038,2.0375,2.0368,2.0374,2.0321,2.032,2.032,2.0328,2.0327,2.0327,0,0,0,0,0,2.0535,2.0523,2.052,2.0514,2.0482,2.0461,2.0456,2.0443,2.0444,2.0437,2.0423,2.0416,2.0373,2.0378,2.0373,2.0365,2.0321,2.0321,2.032,2.0328,2.0327,2.0327,0,0,0,0,0,0,2.0545,2.052,2.0516,2.0497,2.0481,2.0459,2.045,2.0443,2.0426,2.0426,2.041,2.0404,2.0384,2.0372,2.0379,2.0346,2.0346,2.0344,2.0355,2.0354,2.0354,2.0357,2.0372,0,0,0,0,0,2.0546,2.0531,2.051,2.0495,2.0488,2.047,2.046,2.0452,2.0434,2.0427,2.0411,2.0393,2.0376,2.0364,2.0347,2.0326,2.032,2.0318,2.0317,2.0317,2.0315,2.0302,2.0301,2.0317,2.0317,2.0317,0,0,2.0546,2.0531,2.0522,2.0497,2.0484,2.0468,2.0465,2.0449,2.0436,2.0424,2.0404,2.0391,2.037,2.0349,2.0339,2.0338,2.031,2.0316,2.0316,2.0314,2.0301,2.03,2.0298,2.0316,2.0316,2.0316,0,0,2.0539,2.0526,2.0512,2.0499,2.0479,2.0467,2.0464,2.0442,2.0433,2.0412,2.0402,2.0387,2.0357,2.0342,2.0331,2.0316,2.0309,2.0311,2.0309,2.0296,2.0295,2.0294,2.0288,2.0286,2.0309,2.0309,2.0309,0,2.0541,2.0519,2.0506,2.049,2.0479,2.0467,2.0452,2.044,2.0415,2.0406,2.0407,2.0368,2.0353,2.0328,2.0324,2.0316,2.031,2.0314,2.0296,2.0295,2.0294,2.0288,2.0286,2.031,2.031,2.031,2.031,0,2.0523,2.0507,2.0498,2.0474,2.0462,2.0447,2.043,2.0419,2.0411,2.0399,2.0376,2.0358,2.0336,2.033,2.0321,2.0302,2.0303,2.03,2.03,2.0293,2.0287,2.0284,2.031,2.031,2.031,2.031,0,0,2.0522,2.0491,2.0488,2.0476,2.0453,2.044,2.0423,2.0402,2.0393,2.0375,2.036,2.0334,2.0331,2.0318,2.0308,2.0297,2.0286,2.0295,2.0294,2.0293,2.0262,2.0264,2.0262,2.0281,2.028,2.028,2.0264,0,2.0511,2.0482,2.0469,2.0446,2.043,2.0419,2.0404,2.0387,2.0375,2.0359,2.0345,2.0327,2.0325,2.0316,2.0305,2.029,2.0279,2.0291,2.0265,2.0265,2.0271,2.0259,2.0261,2.0247,2.0261,2.0261,2.0261,0,2.0494,2.0478,2.0453,2.043,2.0423,2.041,2.039,2.0375,2.0355,2.0347,2.0332,2.0322,2.0303,2.0304,2.0277,2.0285,2.0273,2.0264,2.0263,2.026,2.0262,2.0255,2.0242,2.024,2.0257,2.0257,2.0258,0,2.0495,2.0466,2.0447,2.0438,2.0412,2.0403,2.0391,2.0371,2.0359,2.0341,2.0332,2.0311,2.03,2.0283,2.0267,2.027,2.0241,2.0241,2.0232,2.0233,2.0226,2.0227,2.0211,2.022,2.022,2.022,2.022,0,2.0484,2.0469,2.0447,2.0436,2.0418,2.0403,2.0385,2.0372,2.0355,2.0339,2.0328,2.0313,2.0294,2.0276,2.0264,2.0242,2.0237,2.0229,2.0226,2.023,2.0231,2.0222,2.0222,2.022,2.022,2.022,2.022,0,2.0483,2.0467,2.0446,2.0422,2.0416,2.0404,2.0383,2.037,2.0357,2.0338,2.0332,2.0311,2.029,2.0273,2.0245,2.0236,2.0213,2.021,2.022,2.0218,2.021,2.0211,2.0188,2.0183,2.0196,2.0196,2.0196,0,2.0477,2.0465,2.044,2.0429,2.0418,2.04,2.0388,2.0372,2.0359,2.0335,2.0325,2.0303,2.0285,2.0251,2.0232,2.0211,2.0206,2.0199,2.0203,2.0207,2.0205,2.0206,2.0204,2.0199,2.0199,2.0199,2.0199,0,2.0467,2.046,2.0443,2.0423,2.0409,2.0392,2.0375,2.0366,2.0347,2.0333,2.0311,2.0297,2.0268,2.0246,2.0222,2.0208,2.02,2.0198,2.0195,2.0198,2.0205,2.02,2.0219,2.0199,2.0199,2.0199,2.0199,2.0199,2.0462,2.0451,2.0431,2.0412,2.0398,2.0382,2.0369,2.0354,2.0336,2.0312,2.0303,2.0281,2.0259,2.0227,2.0213,2.0194,2.0193,2.0188,2.0187,2.0186,2.0186,2.0208,2.019,2.019,2.019,2.019,2.019,0,2.0452,2.0439,2.0421,2.0398,2.0382,2.0376,2.0357,2.0344,2.0325,2.0306,2.0288,2.0263,2.0241,2.022,2.0197,2.0186,2.0181,2.018,2.0181,2.0177,2.0189,2.0194,2.0184,2.0184,2.0184,2.0184,2.0184,2.0184,2.0445,2.0425,2.0415,2.0387,2.0373,2.0352,2.0341,2.0325,2.031,2.0283,2.0265,2.0252,2.0232,2.0207,2.0186,2.018,2.0172,2.0172,2.0165,2.0176,2.0177,2.0177,2.0182,2.017,2.017,2.0155,2.0155,2.0155]}]]